This demonstration page uses our WeatherBlox Daily Observations layout. Learn more.

Left ArrowRight Arrow

39.51506, -84.39828

Hourly Observations for June 27, 2022

Temp ( °F °C ) Dew Point ( °F °C ) Humidity (%) Winds ( mph kmh ) Pressure ( in mb ) Visibility ( mi km ) Precip ( " mm )
12:15 am 00:15 Partly Cloudy 73 22.7 60 15.7 65 65 NW 10 17 30.07 1018 10 16 0.00 0.00
12:35 am 00:35 Partly Cloudy 72 22.3 60 15.4 65 65 NW 10 17 30.08 1019 10 16 0.00 0.00
12:55 am 00:55 Clear 71 21.5 60 15.3 68 68 NW 7 11 30.08 1019 10 16 0.00 0.00
1:15 am 01:15 Clear 70 20.9 59 15.1 70 70 NNW 6 9 30.08 1019 10 16 0.00 0.00
1:35 am 01:35 Clear 69 20.3 59 15.1 72 72 NNW 6 9 30.08 1019 10 16 0.00 0.00
1:55 am 01:55 Clear 67 19.6 59 14.9 74 74 NW 6 9 30.09 1019 10 16 0.00 0.00
2:15 am 02:15 Clear 66 19.1 59 14.8 76 76 NNW 5 7 30.09 1019 10 16 0.00 0.00
2:35 am 02:35 Clear 67 19.2 57 13.7 71 71 NNW 5 7 30.09 1019 10 16 0.00 0.00
2:55 am 02:55 Clear 66 18.7 56 13.3 71 71 NW 6 9 30.09 1019 10 16 0.00 0.00
3:15 am 03:15 Clear 65 18.3 55 12.9 71 71 NNW 3 6 30.09 1019 10 16 0.00 0.00
3:35 am 03:35 Clear 64 17.5 56 13.3 77 77 NW 3 6 30.09 1019 10 16 0.00 0.00
3:55 am 03:55 Clear 63 17.3 55 12.9 76 76 NNW 5 7 30.10 1019 10 16 0.00 0.00
4:15 am 04:15 Clear 63 17.1 56 13.4 79 79 Calm 30.10 1019 10 16 0.00 0.00
4:35 am 04:35 Clear 61 16.3 59 14.8 91 91 Calm 30.11 1020 10 16 0.00 0.00
4:55 am 04:55 Clear 60 15.8 58 14.6 93 93 Calm 30.12 1020 10 16 0.00 0.00
5:15 am 05:15 Clear 59 15 57 14 94 94 Calm 30.14 1021 10 16 0.00 0.00
5:35 am 05:35 Clear 57 14 N/A N/A Calm 30.14 1021 10 16 0.00 0.00
5:55 am 05:55 Clear 57 14 N/A N/A Calm 30.15 1021 10 16 0.00 0.00
6:15 am 06:15 Sunny 57 14 N/A N/A Calm 30.15 1021 10 16 0.00 0.00
6:35 am 06:35 Sunny 57 14 57 14 100 100 Calm 30.17 1022 10 16 0.00 0.00
6:55 am 06:55 Sunny 57 14 N/A N/A Calm 30.17 1022 10 16 0.00 0.00
7:15 am 07:15 Sunny 59 14.9 58 14.4 97 97 Calm 30.18 1022 10 16 0.00 0.00
7:35 am 07:35 Sunny 61 16 58 14.5 91 91 Calm 30.17 1022 10 16 0.00 0.00
7:55 am 07:55 Sunny 64 17.5 56 13.6 78 78 N 5 7 30.18 1022 10 16 0.00 0.00
8:15 am 08:15 Sunny 65 18.3 56 13.3 73 73 NNW 5 7 30.18 1022 10 16 0.00 0.00
8:35 am 08:35 Sunny 67 19.4 54 12.1 63 63 N 7 11 30.19 1022 10 16 0.00 0.00
8:55 am 08:55 Sunny 68 20 52 11.2 57 57 N 9 15 30.19 1023 10 16 0.00 0.00
9:15 am 09:15 Sunny 69 20.3 51 10.8 55 55 NNE 9 15 30.19 1022 10 16 0.00 0.00
9:35 am 09:35 Sunny 69 20.8 49 9.2 48 48 N 9 15 30.20 1023 10 16 0.00 0.00
9:55 am 09:55 Sunny 71 21.4 49 9.5 47 47 N 9 15 30.20 1023 10 16 0.00 0.00
10:15 am 10:15 Sunny 71 21.9 48 8.9 44 44 NNE 8 13 30.20 1023 10 16 0.00 0.00
10:35 am 10:35 Sunny 72 22.3 46 7.9 40 40 N 10 17 30.20 1023 10 16 0.00 0.00
10:55 am 10:55 Sunny 73 22.8 46 7.8 38 38 NNW 9 15 30.20 1023 10 16 0.00 0.00
11:15 am 11:15 Sunny 73 23 46 7.8 38 38 N 7 11 30.21 1023 10 16 0.00 0.00
11:35 am 11:35 Sunny 74 23.5 48 8.8 39 39 NNW 10 17 30.20 1023 10 16 0.00 0.00
11:55 am 11:55 Sunny 74 23.3 45 7.2 36 36 N 3 6 30.20 1023 10 16 0.00 0.00
12:15 pm 12:15 Sunny 75 23.8 46 7.6 36 36 N 12 19 30.20 1023 10 16 0.00 0.00
12:35 pm 12:35 Sunny 75 24.1 46 7.6 35 35 N 9 15 30.19 1023 10 16 0.00 0.00
12:55 pm 12:55 Sunny 76 24.3 46 7.5 34 34 N 12 19 30.19 1022 10 16 0.00 0.00
1:15 pm 13:15 Sunny 76 24.2 45 7.3 34 34 NW 8 13 30.18 1022 10 16 0.00 0.00
1:35 pm 13:35 Sunny 76 24.7 45 7.4 33 33 W 3 6 30.18 1022 10 16 0.00 0.00
1:55 pm 13:55 Sunny 76 24.6 44 6.6 32 32 N 6 9 30.18 1022 10 16 0.00 0.00
2:15 pm 14:15 Sunny 78 25.3 45 7.1 31 31 NW 9 15 30.17 1022 10 16 0.00 0.00
2:35 pm 14:35 Sunny 78 25.4 46 7.9 33 33 W 8 13 30.16 1021 10 16 0.00 0.00
2:55 pm 14:55 Sunny 79 25.9 46 7.9 32 32 W 10 17 30.16 1021 10 16 0.00 0.00
3:15 pm 15:15 Sunny 79 26.3 48 8.9 33 33 NW 15 24 30.15 1021 10 16 0.00 0.00
3:35 pm 15:35 Partly Cloudy 78 25.8 46 7.7 32 32 NW 8 13 30.14 1021 10 16 0.00 0.00
3:55 pm 15:55 Partly Cloudy 78 25.6 46 7.5 32 32 W 8 13 30.14 1021 10 16 0.00 0.00
4:15 pm 16:15 Partly Cloudy 79 26.3 46 7.9 31 31 W 7 11 30.14 1021 10 16 0.00 0.00
4:35 pm 16:35 Partly Cloudy 80 26.5 46 7.8 31 31 WNW 9 15 30.14 1021 10 16 0.00 0.00
4:55 pm 16:55 Sunny 80 26.6 47 8.1 31 31 W 8 13 30.13 1020 10 16 0.00 0.00
5:15 pm 17:15 Sunny 80 26.7 48 8.9 33 33 NNW 12 19 30.13 1020 10 16 0.00 0.00
5:35 pm 17:35 Sunny 80 26.5 45 7.1 29 29 W 10 17 30.13 1020 10 16 0.00 0.00
5:55 pm 17:55 Sunny 80 26.4 45 7.2 30 30 W 10 17 30.13 1020 10 16 0.00 0.00
6:15 pm 18:15 Partly Cloudy 79 26.2 47 8.4 32 32 WNW 10 17 30.13 1020 10 16 0.00 0.00
6:35 pm 18:35 Partly Cloudy 78 25.8 46 7.8 32 32 W 10 17 30.13 1020 10 16 0.00 0.00
6:55 pm 18:55 Sunny 78 25.4 46 7.6 32 32 NW 7 11 30.13 1020 10 16 0.00 0.00
7:15 pm 19:15 Partly Cloudy 77 24.9 45 7.4 33 33 NW 13 20 30.13 1020 10 16 0.00 0.00
7:35 pm 19:35 Sunny 76 24.5 43 6.2 31 31 WNW 10 17 30.14 1021 10 16 0.00 0.00
7:55 pm 19:55 Sunny 75 24.1 44 6.7 33 33 NW 8 13 30.15 1021 10 16 0.00 0.00
8:15 pm 20:15 Sunny 74 23.3 41 5.1 31 31 NW 8 13 30.15 1021 10 16 0.00 0.00
8:35 pm 20:35 Sunny 72 22 41 4.9 33 33 NW 7 11 30.15 1021 10 16 0.00 0.00
8:55 pm 20:55 Sunny 71 21.6 41 4.9 34 34 NW 5 7 30.16 1021 7 11 0.00 0.00
9:15 pm 21:15 Clear 68 20.2 42 5.6 39 39 NW 5 7 30.16 1021 10 16 0.00 0.00
9:35 pm 21:35 Clear 67 19.4 42 5.7 41 41 NW 6 9 30.17 1022 10 16 0.00 0.00
9:55 pm 21:55 Clear 66 18.9 43 6.1 43 43 NNW 6 9 30.18 1022 10 16 0.00 0.00
10:15 pm 22:15 Clear 64 18 44 6.8 48 48 NW 6 9 30.19 1022 10 16 0.00 0.00
10:35 pm 22:35 Clear 64 17.8 44 6.6 48 48 NW 6 9 30.20 1023 10 16 0.00 0.00
10:55 pm 22:55 Clear 64 17.7 42 5.7 45 45 NW 7 11 30.21 1023 10 16 0.00 0.00
11:15 pm 23:15 Clear 63 17.4 42 5.6 46 46 NW 7 11 30.22 1023 10 16 0.00 0.00
11:35 pm 23:35 Clear 62 16.9 42 5.5 47 47 NW 7 11 30.22 1023 10 16 0.00 0.00
11:55 pm 23:55 Clear 62 16.9 42 5.4 47 47 NW 7 11 30.23 1024 10 16 0.00 0.00

Powered by AerisWeather